Location: Taipo
(41.0000°S, 175.9500°E)
Time: 10:52:12
(UTC+00:00)

Cosmos 1933 Rocket - Pass Details

Date: 18 April 2024
Orbit: 602 x 627 km, 82.5° (Epoch: 25 May)

Event Time Altitude Azimuth Distance (km) Brightness Sun altitude
Rises 17:46:56 0° 333° (NNW) 2,853 6.7 -12.6°
Reaches altitude 10° 17:49:16 10° 324° (NW) 1,960 5.8 -12.2°
Maximum altitude 17:53:17 36° 257° (WSW) 984 4.1 -11.5°
Drops below altitude 10° 17:57:22 10° 189° (S) 1,997 6.0 -10.7°
Sets 17:59:46 0° 180° (S) 2,915 7.0 -10.2°
